{"data":{"norad_id":58017,"intl_designator":"2023-155B","name":"FORMOSAT-7R (TRITON)","alt_names":[],"object_type":"PAYLOAD","status":"ACTIVE","operator":null,"country":"ROC","launch_date":"2023-10-09","launch_site_code":"FRGUI","launch_vehicle":null,"mission":null,"orbit_class":"UNKNOWN","rcs_meters":null,"size_class":null,"mass_kg":null,"dimensions":null,"purposes":[],"wikipedia_slug":null,"has_3d_model":false,"image_url":null,"decayed_at":null,"tle_current":{"epoch":"2026-09-21T19:05:45.626208Z","epoch_age_seconds":121816,"freshness":"FRESH","line1":"1 58017U 23155B   26264.79566697  .00000787  00000+0  84543-4 0  9991","line2":"2 58017  97.8299 345.4970 0002508 106.0225 254.1270 14.91347823160628","mean_motion":14.91347823,"eccentricity":0.0002508,"inclination_deg":97.8299,"raan_deg":345.497,"arg_perigee_deg":106.0225,"mean_anomaly_deg":254.127,"bstar":8.4543e-5,"rev_number":16062,"period_min":96.556951892235,"perigee_km":591.98334913183,"apogee_km":595.48043856898,"semimajor_km":6971.8688938504,"source":"CELESTRAK","updated_at":"2026-09-22T09:00:26.439949Z"}}}